Location: Newark
(47.5833°N, 8.1500°E)
Time: 07:40:38
(UTC+00:00)

Vanguard 1 - Pass Details

Date: 29 October 2020
Orbit: 650 x 3833 km, 34.2° (Epoch: 29 November)

Event Time Altitude Azimuth Distance (km) Brightness Sun altitude
Rises 09:38:54 0° 198° (SSW) 6,880 15.1 25.4°
Reaches altitude 10° 09:44:15 10° 187° (S) 6,252 15.3 25.8°
Maximum altitude 10:00:24 28° 138° (SE) 5,483 15.5 26.7°
Drops below altitude 10° 10:17:27 10° 90° (E) 6,686 14.6 27.6°
Sets 10:23:19 0° 81° (E) 7,426 14.6 27.8°
